TimePDT,TemperatureF,Dew PointF,Humidity,Sea Level PressureIn,VisibilityMPH,Wind Direction,Wind SpeedMPH,Gust SpeedMPH,PrecipitationIn,Events,Conditions,WindDirDegrees,DateUTC
12:53 AM,51.1,46.9,86,30.03,10.0,SW,18.4,24.2,N/A,,Overcast,230,2013-05-08 07:53:00
1:53 AM,51.1,46.9,86,30.03,10.0,SW,16.1,21.9,N/A,,Overcast,230,2013-05-08 08:53:00
2:53 AM,51.1,46.9,86,30.05,10.0,SW,11.5,-,N/A,,Overcast,220,2013-05-08 09:53:00
3:53 AM,51.1,46.9,86,30.06,10.0,SW,11.5,-,N/A,,Overcast,230,2013-05-08 10:53:00
4:53 AM,51.1,48.0,89,30.06,10.0,SW,9.2,-,N/A,,Overcast,230,2013-05-08 11:53:00
5:18 AM,51.8,48.2,88,30.06,10.0,SW,8.1,-,N/A,,Overcast,230,2013-05-08 12:18:00
5:53 AM,51.1,48.0,89,30.07,10.0,SW,6.9,-,N/A,,Overcast,220,2013-05-08 12:53:00
6:53 AM,51.1,48.0,89,30.09,10.0,SW,6.9,-,N/A,,Overcast,230,2013-05-08 13:53:00
7:53 AM,51.1,48.0,89,30.11,9.0,SW,5.8,-,N/A,,Overcast,230,2013-05-08 14:53:00
8:53 AM,52.0,48.0,86,30.12,10.0,SW,6.9,-,N/A,,Overcast,220,2013-05-08 15:53:00
9:12 AM,51.8,48.2,88,30.11,10.0,SW,8.1,-,N/A,,Overcast,220,2013-05-08 16:12:00
9:53 AM,52.0,48.9,89,30.13,10.0,SW,5.8,-,N/A,,Overcast,220,2013-05-08 16:53:00
10:53 AM,53.1,48.9,86,30.13,10.0,SW,5.8,-,N/A,,Overcast,220,2013-05-08 17:53:00
11:53 AM,55.0,48.9,80,30.14,10.0,WSW,8.1,-,N/A,,Overcast,240,2013-05-08 18:53:00
12:05 PM,55.4,48.2,77,30.13,10.0,WSW,5.8,-,N/A,,Overcast,240,2013-05-08 19:05:00
12:53 PM,57.0,48.9,74,30.14,10.0,SSW,3.5,-,N/A,,Overcast,210,2013-05-08 19:53:00
1:53 PM,60.1,50.0,69,30.13,10.0,West,5.8,-,N/A,,Overcast,280,2013-05-08 20:53:00
2:39 PM,62.6,51.8,68,30.12,10.0,West,9.2,-,N/A,,Scattered Clouds,270,2013-05-08 21:39:00
2:53 PM,62.1,51.1,67,30.13,10.0,West,4.6,-,N/A,,Clear,260,2013-05-08 21:53:00
3:53 PM,64.9,51.1,61,30.11,10.0,SSW,6.9,-,N/A,,Clear,200,2013-05-08 22:53:00
4:53 PM,69.1,52.0,54,30.09,10.0,SSW,6.9,-,N/A,,Clear,210,2013-05-08 23:53:00
5:53 PM,69.1,51.1,53,30.08,10.0,SSW,8.1,-,N/A,,Clear,210,2013-05-09 00:53:00
6:53 PM,66.9,51.1,57,30.08,10.0,WSW,10.4,-,N/A,,Clear,250,2013-05-09 01:53:00
7:53 PM,61.0,50.0,67,30.09,10.0,WSW,10.4,-,N/A,,Clear,240,2013-05-09 02:53:00
8:53 PM,57.0,48.9,74,30.11,10.0,WSW,10.4,-,N/A,,Clear,240,2013-05-09 03:53:00
9:53 PM,54.0,48.0,80,30.14,10.0,WSW,11.5,-,N/A,,Clear,250,2013-05-09 04:53:00
10:53 PM,50.0,46.9,89,30.15,10.0,WSW,9.2,-,N/A,,Clear,240,2013-05-09 05:53:00
11:50 PM,48.2,46.4,93,30.15,10.0,WSW,10.4,-,N/A,,Partly Cloudy,250,2013-05-09 06:50:00
11:53 PM,48.9,46.9,93,30.16,10.0,WSW,10.4,-,N/A,,Scattered Clouds,250,2013-05-09 06:53:00